Regional Weather Roundup
Issued by NWS

Home | Current Version | Previous Version | Graphics & Text | Print | Product List | Glossary On
Versions: 1 2 3 4 5 6 7 8 9 10 11 12 13 14 15 16 17 18 19 20 21 22 23 24 25 26 27 28 29 30 31 32 33 34 35 36 37 38 39 40 41 42 43 44 45 46 47 48 49 50
000
ASUS45 KPSR 241600
RWRAZ

PRELIMINARY ARIZONA REGIONAL HOURLY WEATHER ROUNDUP
NATIONAL WEATHER SERVICE PHOENIX AZ
900 AM MST WED DEC 24 2014

NOTE: FAIR INDICATES FEW OR NO CLOUDS BELOW 12,000 FEET WITH NO
SIGNIFICANT WEATHER AND/OR OBSTRUCTIONS TO VISIBILITY.

AZZ001>003-036-241700-
NORTHWEST ARIZONA

CITY           SKY/WX    TMP DP  RH WIND       PRES   REMARKS
KINGMAN        SUNNY     40  17  39 E6        30.17F
$$

AZZ004>008-015-016-018-241700-
NORTH CENTRAL ARIZONA

CITY           SKY/WX    TMP DP  RH WIND       PRES   REMARKS
GRAND CANYON   SUNNY     23  15  71 NE3       30.18F
PRESCOTT       SUNNY     30  13  49 SW3       30.19F
FLAGSTAFF      NOT AVBL
PAYSON         SUNNY     36   5  27 E5        30.19F WCI  32
PAGE           PTSUNNY   32  14  47 CALM      30.19F
$$

AZZ009>014-017-241700-
NORTHEAST ARIZONA

CITY           SKY/WX    TMP DP  RH WIND       PRES   REMARKS
WINSLOW        NOT AVBL
SAINT JOHNS    SUNNY     24  13  62 CALM      30.23R
WINDOW ROCK    SUNNY     23  10  57 CALM      30.19S
$$

AZZ023-241700-
GREATER PHOENIX AREA

CITY           SKY/WX    TMP DP  RH WIND       PRES   REMARKS
PHOENIX        MOSUNNY   50  19  29 S3        30.17S
GLENDALE       MOSUNNY   45  28  53 E3        30.18F
LUKE AFB       SUNNY     46  22  38 NE3       30.16F
DEER VALLEY    SUNNY     47  19  33 CALM      30.16F
SCOTTSDALE     SUNNY     45  24  43 CALM      30.18F
MESA-FALCON    MOSUNNY   46  14  27 N9        30.17S
MESA-GATEWAY   MOSUNNY   39  27  60 CALM      30.20R
CHANDLER       MOSUNNY   43  28  56 CALM      30.18F
$$

AZZ027-028-241700-
SOUTHWEST MARICOPA COUNTY AND PINAL COUNTY

CITY           SKY/WX    TMP DP  RH WIND       PRES   REMARKS
CASA GRANDE    SUNNY     48  18  29 CALM      30.18S
GILA BEND      MOSUNNY   47  21  35 E3        30.17F
$$

AZZ503-504-507>509-241700-
SOUTHEAST ARIZONA

CITY           SKY/WX    TMP DP  RH WIND       PRES   REMARKS
TUCSON         SUNNY     46  16  30 E12       30.17R
DAVIS-MONTHAN  SUNNY     45  15  30 E10       30.16R
RYAN FIELD       N/A     45  27  49 E9        30.18R
NOGALES        SUNNY     41  16  36 CALM      30.14R
SIERRA VISTA   MOSUNNY   39  12  33 E5        30.16F
SAFFORD        SUNNY     38  18  44 NE5       30.23R WCI  34
$$

AZZ020-021-025-026-031-241700-
SOUTHWEST ARIZONA

CITY           SKY/WX    TMP DP  RH WIND       PRES   REMARKS
YUMA           MOSUNNY  N/A N/A N/A NE9       30.14F
$$

CAZ031-033-041-043-047-048-061-241700-
SOUTHERN CALIFORNIA

CITY           SKY/WX    TMP DP  RH WIND       PRES   REMARKS
DOWNTOWN L.A.  SUNNY     58  38  47 CALM      30.07F
L.A. AIRPORT   MOSUNNY   61  39  44 NE6       30.07S
SAN DIEGO      SUNNY     59  36  42 CALM      30.08R
BURBANK        SUNNY     54  38  54 CALM      30.08F
ONTARIO        PTSUNNY   55  39  54 NE5       30.09S
RIVERSIDE      PTSUNNY   53  36  52 E5        30.10S
PALM SPRINGS   SUNNY     52  34  50 NW6       30.16F
EL CENTRO NAS  MOSUNNY   46  28  49 W5        30.15R
IMPERIAL       SUNNY     48  30  49 CALM      30.14S
BLYTHE         SUNNY     47  26  44 N6        30.16F
$$

NVZ020-UTZ003-241700-
SOUTHERN NEVADA-UTAH

CITY           SKY/WX    TMP DP  RH WIND       PRES   REMARKS
LAS VEGAS      NOT AVBL
SALT LAKE CITY PTCLDY    31  20  63 SE9       30.11R WCI  23
$$

NMZ009-TXZ055-241700-
NEW MEXICO-WEST TEXAS

CITY           SKY/WX    TMP DP  RH WIND       PRES   REMARKS
ALBUQUERQUE    MOSUNNY   27  13  55 CALM      30.19S
EL PASO        SUNNY     33  22  63 S5        30.23R WCI  29
$$


........................KEY........................
SKY/WX - SKY CONDITION/WEATHER
TMP    - TEMPERATURE IN FAHRENHEIT
DP     - DEW POINT IN FAHRENHEIT
RH     - RELATIVE HUMIDITY IN PERCENT
WIND   - DIRECTION AND SPEED IN MILES PER HOUR (MPH)
VRB    - VARIABLE WIND DIRECTION
PRES   - MEAN SEA LEVEL PRESSURE IN INCHES OF MERCURY
         F - FALLING PRESSURE   R - RISING PRESSURE
         S - STEADY PRESSURE
VSB    - VISIBILITY IN MILES
HX     - HEAT INDEX IN FAHRENHEIT
WCI    - WIND CHILL INDEX IN FAHRENHEIT
TC     - TEMPERATURE IN CELSIUS WHICH IS ALSO KNOWN AS
         TEMPERATURE IN CENTIGRADE
AFB    - AIR FORCE BASE
         LUKE AFB IS LUKE AIR FORCE BASE
         DAVIS-MONTHAN IS DAVIS-MONTHAN AIR FORCE BASE
NAS    - NAVAL AIR STATION
         EL CENTRO NAS IS EL CENTRO NAVAL AIR STATION
N/A    - NOT AVAILABLE



USA.gov is the U.S. government's official web portal to all federal, state and local government web resources and services.